Weather in Sion

Switzerland     46°13′46″N   7°21′52″E
В апреле 2022 года жителям России запретили посещать сайт meteo.paraplan.net по решению Генеральной прокуратуры. Аудитория сайта уменьшилась в 10 раз. Владельцы сайта не видят смысла в поддержке погодного сервера в таких условиях. Сайт будет закрыт в октябре.
temp.,
°C
wind,
m/s
gust,
m/s
humid.,
%
clouds,
%
prec.,
mm/h
press.,
hPa
HPBL,
m
6 october, thu
thu623:00+8e11810 0.0 102810
02:00+7ese11850 0.0 103010
05:00+6ese11860 0.0 103010
08:00+6ene11850 0.0 103010
11:00+14ese01600 0.0 1029594
14:00+17wnw11460 0.0 10271310
17:00+16wnw22534 0.0 1026780
20:00+9nnw11924 0.0 102910
7 october, fri
fri723:00+8e11905 0.0 102911
02:00+8e118729 0.0 102811
05:00+7e228585 0.0 102813
08:00+6ene22825 0.0 102721
11:00+14e11555 0.0 1025379
14:00+17w11499 0.0 10221126
17:00+16wnw22645 0.3 1020579
20:00+9nnw119395 1.4 102312
8 october, sat
sat823:00+8w009553 0.3 102311
02:00+7s019772 0.9 102311
05:00+9w1198100 1.1 102253
08:00+8ssw1197100 2.3 102234
11:00+11wnw1181100 0.3 1022388
14:00+13wnw227328 1.1 1021861
17:00+11nw228069 0.8 1021523
20:00+9nw119287 0.9 102317
9 october, sun
sun923:00+7ene11910 0.0 102311
02:00+6e22890 0.0 102212
05:00+5ene22860 0.0 102115
08:00+5ene22874 0.0 102220
11:00+12ene11662 0.0 1020396
14:00+17wsw024610 0.0 10181484
17:00+16sw114750 0.1 10161296
20:00+10ese117549 0.2 102013
10 october, mon
mon1023:00+7ese21805 0.0 102115
02:00+6e218311 0.0 102215
05:00+6e228357 0.0 102223
08:00+5ene228477 0.0 102231
11:00+12ene1158100 0.0 1021371
14:00+15wnw1148100 0.0 10201276
17:00+13wnw2264100 0.3 1020540
20:00+8nne119142 0.9 102310